Temperature
27 28 28 28 27 27 25 24 23 23 22 21 20 20 19 18 18 17 17 17 16 15 15 14 14 13 13 12 12 11 11 11 11 10 10 10 10 9 9 9 9 10 10 10
26 28 28 27 25 25 24 23 23 22 22 22 20 19 18 18 17 17 17 16 15 15 14 13 13 13 12 12 12 11 11 11 11 10 10 10 10 9 9 9 9 9 9 9
25 27 27 23 22 22 22 22 22 21 21 21 19 18 18 17 17 17 16 15 14 14 13 13 12 12 12 11 11 11 11 11 10 10 10 10 10 10 9 9 9 9 9 9
25 26 23 21 23 22 21 22 22 21 20 19 18 18 17 17 16 15 14 14 13 13 13 12 12 12 11 11 11 10 10 10 10 10 10 10 10 9 9 9 9 9 9 9
25 24 23 22 22 21 20 20 20 19 18 18 17 16 16 16 15 14 14 13 13 12 12 12 11 11 11 10 10 10 9 9 9 9 9 9 9 9 9 9 9 8 8 9
24 23 22 21 22 21 21 20 19 18 17 17 16 15 15 15 14 14 13 13 12 12 12 11 11 11 10 10 9 9 9 8 8 8 8 8 8 8 8 8 8 8 8 8
23 23 23 21 21 21 18 18 17 17 16 15 15 14 14 14 13 13 13 12 12 12 11 11 10 10 9 9 8 8 8 7 7 7 7 7 7 8 8 8 8 8 8 8
22 21 21 21 20 19 18 17 16 16 15 15 14 14 14 13 13 13 12 12 12 11 10 10 9 8 8 7 7 7 6 6 6 6 6 7 7 7 7 7 7 8 8 8
21 21 21 20 19 18 17 16 15 15 14 14 14 13 13 13 13 12 12 11 11 10 9 8 7 7 6 6 5 5 5 5 5 5 6 6 6 6 7 7 7 7 8 8
21 22 20 19 18 17 16 15 15 14 14 14 13 13 13 13 12 12 11 10 9 8 7 6 5 5 5 5 4 4 4 5 5 5 5 5 6 6 6 7 7 8 8 8
21 20 18 18 17 16 15 15 14 14 14 13 13 13 13 12 11 10 9 8 7 5 5 4 4 4 4 4 4 4 4 4 4 5 5 5 6 6 6 7 7 7 8 8
19 18 17 17 16 15 15 14 14 13 13 13 13 12 12 11 10 9 7 6 5 4 4 4 4 4 4 4 4 4 4 4 4 5 5 5 6 6 6 7 7 7 8 8
18 17 16 16 15 15 14 14 13 13 13 13 12 11 11 9 8 7 6 5 4 4 4 4 4 4 4 5 5 5 4 5 5 5 5 5 6 6 6 7 7 7 7 7
17 16 15 15 15 14 14 13 13 13 12 12 11 10 9 8 7 6 5 4 4 4 4 5 5 5 5 5 5 5 5 5 5 5 5 6 6 6 6 7 7 7 7 7
16 15 15 15 14 13 13 13 12 12 12 11 10 9 8 7 6 5 5 4 5 5 5 5 5 5 5 5 5 5 5 5 5 6 6 6 6 6 7 7 7 7 7 7
16 15 15 14 13 13 12 12 12 11 11 10 9 8 7 6 5 5 5 5 5 5 5 5 6 6 6 6 6 6 6 6 6 6 6 6 6 7 7 7 7 7 7 7
15 15 14 13 13 12 12 11 11 10 10 9 8 7 6 5 5 5 5 5 5 5 5 6 6 6 6 6 6 6 6 6 6 6 6 6 7 7 7 7 7 7 7 7
15 14 14 13 12 12 11 11 10 10 9 8 7 6 6 5 5 5 5 5 5 6 6 6 6 6 6 6 6 7 7 7 7 7 7 7 7 7 7 8 7 7 7 7
14 14 13 12 12 11 10 10 10 9 9 8 7 6 5 5 5 5 5 5 5 5 6 6 7 7 7 7 7 7 7 7 7 7 7 7 7 8 8 7 7 7 7 7
14 13 13 12 11 10 10 9 9 9 8 7 6 6 5 5 5 5 5 5 6 6 6 7 7 7 7 7 7 7 8 8 8 8 8 8 8 8 7 7 7 7 7 7
13 13 12 11 10 10 9 9 9 9 8 7 6 6 5 5 5 5 5 6 6 6 7 7 7 7 7 7 7 7 8 8 8 8 8 8 8 8 7 7 7 7 7 7
12 12 11 10 10 9 9 9 9 8 7 7 6 6 5 5 6 6 6 6 6 7 7 7 7 8 8 8 7 8 8 8 8 8 8 8 8 8 7 7 7 7 7 8
12 11 10 10 9 9 9 9 9 8 7 7 6 6 6 5 5 5 6 6 6 7 7 7 8 8 8 8 8 8 8 8 8 8 8 8 8 8 8 8 8 8 8 8
11 11 10 10 9 9 9 9 9 8 7 7 6 6 6 6 6 6 6 7 7 8 8 8 8 8 9 9 9 9 9 9 9 9 8 8 8 8 9 9 9 9 9 9
11 10 10 9 10 10 9 9 9 8 7 7 6 6 6 5 6 6 7 7 8 8 8 8 8 9 9 9 9 10 10 10 10 10 10 10 9 9 9 9 9 10 10 10
11 11 10 10 9 9 9 9 8 8 7 7 6 6 6 6 6 7 7 8 8 9 9 9 9 9 9 9 10 10 10 10 10 10 11 11 10 10 10 10 10 11 11 11
11 11 11 10 10 9 9 8 8 7 7 6 6 5 5 6 6 6 7 8 8 9 9 9 9 9 9 9 10 10 10 11 11 11 11 11 12 11 11 11 11 11 11 11
Wind_Speed
17 18 16 13 10 10 10 11 11 15 14 9 5 8 11 14 16 18 21 21 16 12 10 10 10 9 10 10 9 10 10 10 10 10 10 10 11 11 11 11 13 11 10 10
17 16 13 8 11 11 10 12 14 16 17 11 8 10 13 17 20 24 23 19 17 16 14 13 12 12 12 11 10 10 11 11 10 10 10 10 10 11 11 11 12 11 11 10
14 15 11 7 11 11 12 13 15 19 18 15 15 16 18 19 24 24 19 20 21 19 15 12 13 11 11 11 10 10 10 11 11 11 11 10 12 11 10 10 11 11 10 10
12 13 7 6 7 10 13 15 19 16 16 18 20 21 20 20 19 20 24 24 21 19 18 17 15 15 12 14 12 12 12 12 11 11 12 11 10 10 10 9 9 9 10 11
8 13 5 5 8 12 15 19 13 16 20 23 24 25 22 20 23 23 23 19 18 20 22 18 17 16 14 14 14 14 14 13 12 12 12 11 11 10 9 9 9 9 10 11
9 13 11 6 11 16 16 13 16 22 24 25 26 24 21 24 25 24 22 19 19 21 20 16 15 14 14 17 16 16 15 13 13 13 13 13 12 11 10 9 9 10 11 11
11 13 5 8 16 18 13 14 21 23 24 25 23 22 24 27 25 22 21 21 19 18 16 13 13 13 15 16 17 16 15 14 14 13 13 13 12 11 10 11 11 11 11 10
9 10 6 13 15 13 14 17 21 23 23 24 25 26 27 26 24 23 23 23 21 16 15 13 13 14 16 16 16 15 16 16 15 14 16 16 11 11 11 11 11 11 11 12
6 8 10 12 13 15 17 19 20 22 24 25 26 28 28 26 23 23 23 21 20 19 19 17 16 15 18 18 17 17 17 17 16 16 14 14 13 12 11 10 11 11 10 10
8 10 14 15 16 18 19 20 22 23 24 25 27 28 28 25 23 22 22 22 21 22 23 22 21 19 18 18 17 17 18 17 15 14 14 13 11 11 11 11 10 10 9 8
11 13 15 14 17 19 20 21 22 23 24 24 27 27 26 23 22 22 22 21 22 22 23 25 23 21 20 19 17 17 17 15 14 13 13 12 11 10 11 10 9 7 6 5
9 12 14 17 18 20 21 22 23 24 25 25 25 26 26 24 22 22 23 23 23 24 24 24 23 23 21 19 16 15 14 13 11 10 10 10 10 10 12 12 10 8 5 3
9 13 14 16 18 19 20 23 23 24 24 25 25 24 24 23 23 23 23 24 24 25 24 24 22 22 20 17 14 13 13 12 9 9 9 9 8 8 6 5 6 6 6 6
10 12 15 15 17 19 21 23 23 23 23 24 23 24 24 23 24 24 24 24 24 24 23 22 21 20 17 14 12 11 10 11 9 8 8 7 7 6 5 5 5 5 5 7
11 12 14 16 17 19 20 22 23 23 24 24 23 23 24 24 24 24 23 23 23 23 22 21 19 18 15 13 10 9 7 5 5 5 5 6 6 5 5 5 5 4 5 5
12 12 14 16 18 19 21 22 22 23 23 24 24 24 23 23 23 23 23 22 23 23 21 19 17 16 14 12 9 6 4 3 3 2 3 4 4 5 4 4 4 5 6 7
11 13 15 16 18 19 20 21 21 22 22 23 24 24 23 23 23 23 23 23 22 20 18 17 17 16 13 11 10 6 4 2 2 1 1 2 3 3 3 3 5 6 7 9
10 11 12 14 16 18 19 20 20 21 21 21 22 22 23 23 22 23 23 23 21 19 18 18 18 16 12 12 10 7 4 3 2 2 2 2 2 2 2 3 6 8 9 9
9 11 12 13 15 16 17 18 19 19 19 20 21 21 21 20 20 21 21 21 19 19 19 20 20 15 11 12 13 7 5 4 3 2 2 3 2 2 3 5 7 8 9 9
9 10 12 13 14 15 16 17 18 18 18 19 20 20 20 21 20 20 20 17 15 16 19 19 16 11 11 12 14 9 7 5 4 2 1 2 2 3 4 6 8 8 9 9
9 11 12 13 14 14 15 16 17 17 18 19 19 18 19 19 19 18 17 15 17 20 20 18 11 10 10 11 12 7 6 5 4 3 2 2 2 3 4 6 7 7 8 9
8 9 11 12 13 14 14 14 15 16 17 18 18 18 18 18 19 18 16 13 16 21 17 12 12 13 14 13 8 6 6 5 4 3 2 2 2 2 3 5 6 8 9 9
6 8 10 11 12 13 14 14 15 15 16 17 17 17 16 14 13 14 15 14 15 21 16 12 16 18 17 10 7 5 4 4 3 2 1 0 1 3 4 6 8 8 9 10
6 7 9 9 11 12 13 14 14 13 15 15 15 15 14 13 13 12 12 16 19 20 14 14 18 19 14 7 6 5 4 3 3 2 1 1 3 4 5 7 8 9 10 12
5 7 8 8 9 10 11 12 13 13 14 14 16 16 14 11 12 13 14 16 20 18 15 15 17 16 11 9 8 7 6 5 4 3 2 3 4 6 7 8 9 10 10 9
5 6 5 6 6 7 9 10 10 11 12 13 14 14 14 13 14 13 13 16 19 18 15 14 14 13 11 11 10 9 7 6 4 2 2 3 5 5 6 7 10 8 8 7
6 6 4 4 5 7 8 9 9 10 11 13 13 13 14 14 14 14 15 14 15 15 14 14 13 12 12 12 11 10 10 9 9 7 5 4 5 6 7 8 7 7 7 7
Wind_Direction
316 313 315 319 342 2 1 349 333 331 329 323 312 321 322 319 318 317 315 311 311 316 320 315 307 297 292 285 279 277 273 269 264 258 256 257 259 260 262 265 271 273 275 280
308 310 313 355 27 13 359 347 336 325 320 336 332 326 322 322 322 317 314 320 327 325 319 314 310 305 299 292 286 276 271 271 270 264 262 260 259 259 258 258 260 261 265 270
311 315 316 45 26 10 351 343 336 320 325 344 339 330 326 327 318 314 329 330 323 318 313 306 301 295 289 290 289 286 281 280 275 272 270 265 269 267 263 263 264 262 262 264
308 325 356 68 32 6 341 331 330 338 353 343 330 326 324 315 319 335 328 320 316 313 310 304 302 300 297 298 294 290 285 283 280 275 275 271 265 263 263 263 265 270 269 266
328 335 355 93 30 359 335 320 8 356 338 331 329 321 314 326 333 323 315 313 311 308 305 301 299 298 294 293 292 289 287 284 284 281 279 275 271 268 267 266 265 267 270 265
329 330 339 46 5 349 325 304 8 346 335 331 327 319 320 326 319 315 315 311 305 303 300 297 297 297 293 291 289 286 286 285 284 280 277 275 272 270 271 268 266 265 265 264
339 325 21 17 350 345 331 328 337 332 329 326 323 315 313 316 316 314 310 308 306 303 301 300 298 294 290 290 287 288 289 287 285 280 276 273 269 266 265 265 266 263 264 266
336 328 357 358 348 346 326 328 330 329 326 322 317 315 315 315 314 313 312 311 311 310 307 307 308 305 300 296 295 294 291 287 282 278 276 273 265 263 261 261 262 261 258 259
334 313 333 351 343 342 341 333 329 326 323 321 317 317 317 316 315 315 316 318 320 320 316 314 312 308 301 298 296 291 286 280 277 275 271 268 265 262 260 256 254 255 252 251
319 320 349 345 345 343 338 330 327 324 322 320 318 318 318 318 320 322 325 328 328 324 319 315 311 305 297 295 292 287 281 277 274 272 269 264 259 255 253 252 249 246 246 247
315 342 337 335 341 335 330 329 325 324 322 321 321 320 322 324 327 330 331 331 328 324 317 312 309 303 298 293 288 283 279 275 270 266 264 262 256 249 247 246 247 245 248 235
327 337 326 326 332 331 331 328 327 326 325 325 326 326 329 330 333 334 332 329 324 319 314 310 308 304 299 292 284 278 276 272 266 260 257 252 252 254 238 233 231 215 206 190
329 330 326 324 327 332 328 329 328 328 328 329 331 333 335 336 335 333 329 325 321 317 313 310 308 306 304 298 289 279 274 270 263 257 252 247 242 238 234 219 208 186 166 148
338 334 326 327 330 331 332 330 330 330 332 334 335 338 339 336 334 331 327 323 319 316 314 315 314 313 313 309 300 290 280 272 261 253 247 238 232 226 218 210 197 189 168 150
338 331 325 329 331 333 333 332 333 334 335 337 340 341 340 338 333 329 325 323 322 321 322 324 324 324 326 324 318 309 298 283 266 250 236 223 215 206 204 206 199 186 155 137
327 328 331 334 335 334 335 336 336 336 338 340 341 341 340 336 331 328 327 328 329 328 329 330 332 335 338 339 336 332 330 310 288 249 214 201 197 197 197 192 181 172 161 147
329 331 336 336 335 336 336 337 336 337 339 341 342 341 339 335 332 331 332 332 330 329 333 338 342 344 348 353 351 349 356 16 244 255 167 174 182 187 187 185 165 154 144 145
327 332 336 337 336 335 336 337 338 339 340 341 342 341 339 337 334 333 333 333 334 338 343 344 344 343 354 4 351 345 352 14 44 59 97 119 142 169 182 144 137 129 125 134
329 334 339 341 340 338 336 337 338 338 341 345 344 341 337 336 335 333 333 335 340 344 343 339 336 343 358 5 350 342 3 33 62 67 91 114 146 145 129 119 122 126 132 142
329 337 341 340 341 340 338 338 337 339 346 348 343 340 339 339 337 337 336 337 342 343 337 332 334 347 360 358 347 347 3 16 26 39 77 121 122 115 117 120 125 131 137 147
333 338 340 339 339 340 340 337 337 343 348 347 344 342 339 338 339 340 339 340 341 341 338 331 342 356 354 342 329 340 353 1 7 12 33 71 97 114 128 131 135 141 147 153
335 336 336 336 337 337 336 336 341 346 349 346 344 344 343 343 342 341 340 341 337 336 338 340 350 348 340 329 328 339 347 353 7 17 27 45 82 117 131 141 146 148 153 157
330 332 332 332 334 330 331 339 346 350 348 345 345 347 346 343 342 342 340 338 338 334 337 341 340 337 332 327 326 333 341 352 6 13 11 196 176 158 153 152 151 154 159 162
318 326 326 329 328 327 336 342 347 350 349 347 349 353 351 347 344 344 337 332 338 336 339 336 335 336 334 337 340 350 358 4 2 359 26 110 125 132 142 148 151 156 159 160
307 314 315 326 326 333 337 342 347 351 351 351 351 355 356 355 346 341 340 343 345 344 346 343 340 341 350 357 3 3 8 12 7 8 47 94 118 126 134 137 140 143 149 156
275 284 305 309 315 328 341 345 346 351 352 352 351 353 354 354 352 350 348 349 351 349 351 352 354 356 2 6 9 10 10 9 11 14 45 86 110 116 124 133 138 143 146 149
244 256 258 304 343 356 348 344 348 352 359 355 349 353 354 356 356 355 355 354 355 355 354 353 356 1 4 9 13 15 16 18 20 28 46 70 97 113 124 130 133 138 144 149
Height
1480 1470 1466 1467 1468 1472 1479 1485 1491 1491 1490 1489 1490 1493 1493 1493 1491 1488 1485 1482 1478 1476 1474 1472 1469 1466 1464 1461 1458 1456 1453 1451 1448 1446 1444 1442 1440 1439 1437 1436 1435 1434 1433 1432
1482 1470 1466 1471 1477 1481 1485 1487 1489 1490 1489 1486 1489 1491 1491 1490 1487 1484 1480 1476 1474 1472 1470 1467 1464 1461 1458 1455 1452 1449 1446 1444 1442 1440 1438 1436 1434 1432 1431 1429 1428 1428 1427 1426
1489 1472 1471 1490 1494 1494 1494 1492 1493 1493 1490 1488 1490 1491 1490 1487 1484 1479 1475 1474 1471 1468 1464 1461 1457 1454 1450 1447 1444 1442 1439 1436 1434 1432 1430 1429 1427 1426 1425 1423 1422 1422 1421 1420
1487 1482 1499 1505 1495 1496 1497 1494 1492 1490 1492 1493 1492 1490 1488 1485 1479 1476 1474 1470 1466 1462 1458 1454 1450 1446 1442 1439 1437 1434 1431 1428 1427 1425 1423 1421 1420 1418 1417 1417 1416 1415 1415 1414
1493 1494 1495 1499 1498 1500 1501 1497 1495 1497 1496 1494 1491 1487 1484 1481 1478 1475 1470 1465 1460 1455 1451 1446 1442 1438 1434 1430 1428 1425 1422 1420 1418 1416 1414 1412 1411 1410 1410 1409 1408 1408 1408 1407
1495 1503 1504 1507 1501 1500 1500 1495 1497 1498 1496 1493 1489 1483 1478 1477 1474 1468 1464 1459 1453 1447 1442 1437 1433 1429 1425 1421 1418 1415 1412 1410 1408 1406 1404 1403 1402 1401 1401 1401 1401 1401 1400 1400
1501 1504 1498 1505 1502 1502 1507 1506 1501 1499 1496 1493 1489 1485 1478 1472 1467 1462 1456 1451 1445 1439 1433 1429 1424 1420 1415 1411 1407 1404 1402 1399 1397 1395 1394 1393 1392 1392 1392 1393 1393 1393 1393 1393
1508 1510 1511 1505 1505 1508 1510 1504 1502 1498 1495 1490 1485 1479 1474 1467 1461 1455 1448 1442 1436 1430 1424 1420 1415 1409 1403 1399 1396 1393 1390 1387 1385 1384 1383 1383 1382 1382 1383 1384 1384 1385 1385 1385
1513 1515 1509 1508 1509 1508 1507 1504 1501 1497 1492 1487 1480 1474 1467 1461 1454 1448 1441 1435 1429 1422 1415 1410 1405 1399 1392 1387 1384 1380 1377 1374 1373 1372 1372 1372 1372 1373 1374 1375 1376 1377 1378 1379
1511 1507 1509 1510 1509 1508 1506 1503 1499 1495 1489 1483 1476 1469 1462 1455 1448 1441 1435 1428 1421 1414 1406 1399 1393 1387 1380 1375 1370 1367 1364 1362 1361 1360 1360 1361 1362 1364 1365 1367 1369 1370 1372 1373
1510 1510 1511 1509 1509 1507 1504 1500 1496 1491 1486 1480 1472 1465 1458 1450 1443 1436 1430 1422 1415 1407 1398 1389 1381 1374 1368 1363 1359 1355 1353 1351 1350 1350 1351 1352 1353 1355 1357 1359 1362 1364 1366 1367
1515 1514 1513 1510 1508 1505 1501 1497 1492 1486 1480 1475 1469 1461 1454 1447 1440 1433 1425 1416 1407 1399 1389 1380 1372 1364 1357 1352 1348 1345 1343 1342 1342 1342 1343 1344 1346 1348 1350 1353 1356 1358 1361 1363
1515 1513 1512 1509 1506 1503 1499 1494 1489 1484 1477 1471 1464 1458 1451 1444 1436 1428 1419 1410 1401 1391 1382 1373 1364 1356 1349 1344 1340 1337 1336 1335 1335 1335 1336 1338 1340 1343 1345 1348 1351 1354 1356 1359
1513 1512 1509 1507 1504 1500 1496 1491 1486 1481 1475 1469 1462 1455 1448 1441 1432 1423 1414 1405 1395 1385 1376 1367 1359 1351 1345 1339 1335 1332 1330 1329 1330 1330 1332 1334 1336 1339 1342 1344 1347 1350 1353 1355
1511 1510 1508 1505 1502 1498 1494 1488 1483 1477 1471 1465 1459 1453 1445 1437 1428 1419 1409 1400 1390 1381 1372 1364 1356 1349 1343 1338 1333 1330 1328 1327 1327 1328 1329 1332 1334 1337 1340 1342 1345 1348 1350 1352
1509 1507 1505 1502 1499 1495 1491 1485 1480 1474 1468 1462 1456 1450 1443 1434 1425 1415 1405 1396 1387 1378 1370 1362 1355 1349 1343 1338 1334 1331 1328 1327 1327 1328 1330 1332 1334 1336 1339 1341 1343 1346 1348 1350
1507 1505 1502 1499 1496 1493 1489 1484 1479 1473 1467 1461 1454 1447 1439 1431 1421 1412 1402 1394 1386 1378 1370 1363 1357 1350 1345 1340 1337 1334 1331 1330 1330 1331 1332 1333 1335 1337 1339 1341 1343 1346 1348 1350
1505 1503 1501 1498 1495 1491 1486 1482 1477 1472 1466 1460 1453 1445 1437 1428 1419 1410 1401 1392 1384 1377 1371 1365 1359 1353 1349 1344 1340 1338 1335 1334 1334 1334 1335 1336 1337 1338 1340 1342 1344 1347 1349 1352
1502 1501 1498 1496 1493 1489 1485 1480 1475 1470 1465 1458 1451 1444 1436 1428 1419 1410 1401 1393 1385 1378 1371 1365 1361 1356 1353 1348 1345 1342 1340 1339 1338 1338 1338 1339 1340 1341 1342 1344 1346 1348 1351 1354
1500 1498 1496 1493 1490 1487 1482 1478 1473 1468 1463 1457 1450 1442 1434 1426 1418 1410 1401 1394 1387 1381 1374 1368 1363 1359 1355 1351 1348 1346 1344 1342 1341 1341 1341 1342 1342 1343 1345 1346 1348 1351 1354 1357
1497 1495 1493 1490 1487 1484 1481 1476 1472 1467 1461 1455 1449 1442 1434 1426 1418 1410 1402 1395 1388 1382 1375 1370 1366 1361 1358 1354 1351 1348 1346 1345 1343 1343 1343 1343 1344 1345 1347 1348 1350 1353 1356 1359
1494 1493 1490 1488 1485 1482 1478 1475 1470 1465 1460 1454 1448 1441 1434 1426 1418 1410 1404 1398 1390 1384 1378 1373 1368 1364 1360 1356 1353 1350 1348 1346 1344 1344 1343 1344 1345 1346 1347 1349 1352 1355 1358 1362
1492 1490 1488 1486 1483 1480 1476 1473 1469 1464 1459 1454 1448 1441 1434 1427 1420 1412 1405 1399 1393 1387 1381 1376 1371 1367 1362 1358 1355 1352 1350 1348 1346 1345 1345 1345 1345 1347 1348 1351 1354 1357 1361 1366
1489 1488 1486 1483 1481 1478 1474 1471 1467 1463 1459 1454 1448 1442 1435 1427 1420 1415 1409 1402 1396 1390 1385 1380 1375 1370 1366 1362 1359 1356 1354 1351 1350 1348 1348 1348 1349 1350 1352 1354 1357 1361 1365 1370
1486 1485 1483 1481 1479 1476 1473 1470 1466 1462 1458 1453 1448 1442 1436 1430 1423 1416 1410 1404 1399 1393 1388 1384 1379 1375 1371 1367 1365 1362 1360 1357 1355 1354 1354 1354 1355 1356 1357 1359 1362 1366 1370 1374
1483 1482 1481 1479 1477 1475 1472 1469 1465 1462 1457 1453 1447 1442 1436 1430 1424 1418 1412 1407 1402 1397 1393 1388 1384 1380 1377 1373 1370 1368 1366 1364 1363 1361 1361 1361 1361 1362 1364 1366 1368 1371 1375 1378
1479 1478 1477 1477 1475 1473 1471 1468 1465 1462 1458 1453 1448 1443 1438 1432 1425 1420 1415 1409 1405 1401 1397 1393 1390 1386 1383 1380 1377 1374 1373 1371 1370 1369 1368 1368 1368 1369 1371 1372 1375 1377 1379 1382